[[{"header":{"parameterUnit":"m.s-1","parameterCategory":1,"la1":30.2991,"la2":30.254,"lo1":-89.0895,"lo2":-89.0444,"dy":0.0017,"dx":0.0017,"nx":28,"ny":28,"refTime":"2025-07-17T09:00:00:Z","depth":0,"parameterNumber":2,"parameterNumberName":"U-component_of_WINDS"},"data":[0,0,0,0,0,0,0,0,0,0,0,0,0,0,0,0,0,0,0,0,0,0,0,0,0,0,0,0,0,0,0,0,0,0,0,0,0,0,0,0,0,0,0,0,0,0,0,0,0,0,0,0,0,0,0,0,0,0,2.0865,2.0863,0,2.0729,2.0727,2.0726,2.0578,2.0576,2.0574,2.0572,2.0433,2.0431,2.043,0,0,0,0,0,0,0,0,0,0,0,0,0,2.0997,2.0995,2.0865,2.0863,2.0861,2.0729,2.0727,2.0725,2.0578,2.0576,2.0573,2.0571,2.0433,2.0431,2.0429,0,0,0,0,0,0,0,0,0,0,0,0,0,2.0908,2.0995,2.0865,2.0772,2.0762,2.0729,2.0727,2.0725,2.0579,2.0576,2.0573,2.057,2.0434,2.0432,2.0429,2.0477,0,0,2.0421,2.042,0,0,0,0,0,0,0,0,2.0914,2.0904,2.0787,2.0778,2.0768,2.0667,2.0723,2.0642,2.058,2.0649,2.0572,2.0568,2.0513,2.0504,2.0486,2.047,2.0464,2.0421,2.0419,2.0418,2.0418,0,0,0,0,0,0,0,2.092,2.0909,2.0811,2.0786,2.0774,2.0737,2.0721,2.0707,2.06,2.0642,2.0631,2.0617,2.0507,2.0488,2.0481,2.0462,2.0421,2.0419,2.0417,2.0416,2.0477,2.048,0,0,0,0,0,0,2.094,2.0915,2.0815,2.0807,2.0834,2.0737,2.0719,2.0703,2.06,2.0582,2.062,2.0611,2.0494,2.0484,2.0476,2.0523,2.0418,2.0416,2.0414,2.0474,2.0478,2.0482,0,0,0,0,0,0,2.0943,2.0933,2.0821,2.0858,2.0841,2.0738,2.0721,2.0702,2.0682,2.0583,2.0564,2.062,2.0491,2.0479,2.0477,2.0516,2.0415,2.0412,2.0471,2.0475,2.048,2.062,0,0,0,0,0,0,2.0948,2.0935,2.0952,2.0859,2.0839,2.0825,2.0723,2.0701,2.0678,2.0665,2.0578,2.0561,2.0488,2.0482,2.0475,2.0511,2.041,2.0466,2.0473,2.0478,2.0611,2.0629,2.0644,0,0,0,0,0,2.0953,2.0997,2.0953,2.0942,2.0858,2.0827,2.0816,2.0731,2.0682,2.0698,2.0634,2.0564,2.0514,2.0483,2.0473,2.051,2.0464,2.0471,2.0478,2.0604,2.0625,2.0643,0,0,0,0,0,0,2.1096,2.0983,2.0933,2.0948,2.0899,2.0802,2.082,2.0757,2.072,2.0709,2.0605,2.0587,2.0597,2.0553,2.0521,2.055,2.0478,2.0484,2.0578,2.0597,2.0613,2.0623,2.0408,0,0,0,0,0,2.113,2.1114,2.1016,2.1039,2.1016,2.0923,2.0906,2.0845,2.079,2.0768,2.0704,2.0653,2.0625,2.0609,2.0578,2.0605,2.0583,2.0625,2.0642,2.0655,2.0661,2.067,2.0688,2.0505,2.0505,2.0505,0,0,2.1199,2.1135,2.1131,2.1066,2.102,2.1006,2.0906,2.0895,2.0883,2.0766,2.0759,2.0711,2.0647,2.0659,2.0661,2.0623,2.0707,2.0665,2.0676,2.0674,2.068,2.0697,2.0712,2.051,2.0509,2.0508,0,0,2.1316,2.1267,2.1279,2.1236,2.1168,2.1105,2.1109,2.1022,2.0986,2.0978,2.0889,2.0874,2.0829,2.0786,2.0759,2.0861,2.0794,2.0854,2.0938,2.0949,2.0963,2.0976,2.1011,2.1024,2.086,2.0861,2.0861,0,2.141,2.1384,2.1294,2.1289,2.1262,2.1156,2.1167,2.113,2.1055,2.104,2.0998,2.0939,2.0888,2.0888,2.0913,2.0895,2.0895,2.0862,2.0969,2.098,2.099,2.1022,2.1036,2.0868,2.0867,2.0867,2.0866,0,2.1502,2.1487,2.1505,2.1436,2.1412,2.1415,2.1325,2.1312,2.1254,2.1196,2.1189,2.1125,2.1079,2.1075,2.1018,2.1067,2.1045,2.0988,2.0914,2.1017,2.1045,2.1057,2.0879,2.0876,2.0874,2.0872,0,0,2.1704,2.1585,2.1594,2.156,2.1478,2.1464,2.1463,2.1418,2.1407,2.1361,2.1356,2.1321,2.1267,2.1236,2.1174,2.1184,2.1267,2.1125,2.1122,2.1152,2.1315,2.1357,2.1373,2.1223,2.1225,2.1227,2.132,0,2.1805,2.1796,2.1715,2.1729,2.1712,2.1612,2.161,2.156,2.1506,2.1484,2.1425,2.1401,2.1333,2.1314,2.1319,2.1256,2.1298,2.1248,2.1217,2.1217,2.1234,2.1388,2.1432,2.1524,2.1331,2.1333,2.1334,0,2.1921,2.1881,2.1893,2.181,2.18,2.1801,2.1752,2.1734,2.1674,2.1634,2.1601,2.153,2.1523,2.1455,2.1443,2.1411,2.1394,2.1361,2.1362,2.1354,2.128,2.1383,2.1551,2.1564,2.1351,2.135,2.1348,0,2.2065,2.2014,2.2014,2.199,2.1893,2.1896,2.1856,2.1793,2.1771,2.173,2.1714,2.1673,2.165,2.1619,2.1539,2.1498,2.1536,2.1462,2.1502,2.1504,2.1512,2.1513,2.1678,2.1505,2.1505,2.1505,2.1505,0,2.2185,2.2196,2.2077,2.2078,2.2087,2.1994,2.2006,2.1956,2.1902,2.189,2.1802,2.1793,2.1689,2.1668,2.1606,2.1604,2.1595,2.1562,2.1545,2.1569,2.1573,2.1554,2.1545,2.1508,2.1508,2.1507,2.1506,0,2.2346,2.2267,2.226,2.217,2.2148,2.2159,2.2081,2.2077,2.2019,2.2006,2.1997,2.1905,2.1876,2.1794,2.1745,2.1703,2.1719,2.1688,2.1739,2.1727,2.1771,2.1768,2.1929,2.1945,2.1765,2.1767,2.1768,0,2.2426,2.2432,2.2343,2.2329,2.2293,2.2271,2.2248,2.2158,2.2138,2.2071,2.2075,2.2039,2.2005,2.1964,2.1893,2.1854,2.182,2.188,2.1814,2.1837,2.1819,2.1819,2.1818,2.1894,2.1896,2.1898,2.19,0,2.2577,2.2538,2.2508,2.2465,2.2441,2.2403,2.236,2.2353,2.2252,2.2234,2.2203,2.2177,2.2126,2.2091,2.2042,2.2,2.1933,2.1921,2.1928,2.1951,2.1979,2.1963,2.1776,2.1917,2.1916,2.1914,2.1913,2.1913,2.2698,2.2698,2.2635,2.2605,2.2564,2.2526,2.2518,2.2459,2.2431,2.2383,2.2332,2.2306,2.2247,2.2173,2.2136,2.2115,2.2079,2.209,2.2092,2.2096,2.2106,2.1985,2.2106,2.2105,2.2105,2.2104,2.2104,0,2.2842,2.2797,2.2771,2.2713,2.269,2.263,2.2579,2.2563,2.2542,2.2493,2.2461,2.2426,2.2392,2.2319,2.2278,2.2275,2.2243,2.2267,2.2265,2.2256,2.2141,2.2138,2.2293,2.2293,2.2293,2.2293,2.2293,2.2293,2.2914,2.2911,2.2865,2.284,2.2795,2.277,2.2746,2.271,2.267,2.2634,2.2606,2.2558,2.2499,2.2453,2.2419,2.2398,2.2386,2.242,2.2389,2.2282,2.2264,2.2247,2.2244,2.2419,2.2419,2.2506,2.2507,2.2507]},{"header":{"parameterUnit":"m.s-1","parameterCategory":1,"la1":30.2991,"la2":30.254,"lo1":-89.0895,"lo2":-89.0444,"dy":0.0017,"dx":0.0017,"nx":28,"ny":28,"refTime":"2025-07-17T09:00:00:Z","depth":0,"parameterNumber":3,"parameterNumberName":"V-component_of_WINDS"},"data":[0,0,0,0,0,0,0,0,0,0,0,0,0,0,0,0,0,0,0,0,0,0,0,0,0,0,0,0,0,0,0,0,0,0,0,0,0,0,0,0,0,0,0,0,0,0,0,0,0,0,0,0,0,0,0,0,0,0,6.396,6.3963,0,6.4184,6.4187,6.4189,6.4242,6.4241,6.4239,6.4238,6.4461,6.4468,6.4475,0,0,0,0,0,0,0,0,0,0,0,0,0,6.3572,6.3579,6.396,6.3963,6.3966,6.4184,6.4187,6.419,6.4242,6.424,6.4239,6.4237,6.4459,6.4467,6.4476,0,0,0,0,0,0,0,0,0,0,0,0,0,6.3763,6.3581,6.396,6.4018,6.4026,6.4183,6.4187,6.4191,6.4243,6.424,6.4238,6.4236,6.4456,6.4466,6.4477,6.459,0,0,6.4511,6.4516,0,0,0,0,0,0,0,0,6.3752,6.3777,6.4007,6.4015,6.4023,6.4183,6.4132,6.4324,6.4243,6.416,6.4238,6.4235,6.437,6.4388,6.4435,6.4601,6.461,6.4512,6.4519,6.4523,6.4526,0,0,0,0,0,0,0,6.3739,6.3768,6.4049,6.401,6.402,6.4032,6.4056,6.4169,6.4275,6.4167,6.4172,6.4198,6.4374,6.4424,6.444,6.4614,6.4512,6.4521,6.4528,6.4532,6.4884,6.4886,0,0,0,0,0,0,6.3716,6.3756,6.4041,6.4055,6.388,6.404,6.4068,6.4134,6.4274,6.4293,6.4199,6.4199,6.4406,6.4427,6.4448,6.459,6.4523,6.4534,6.454,6.4881,6.4884,6.4887,0,0,0,0,0,0,6.3708,6.3741,6.4032,6.3907,6.3945,6.405,6.4123,6.4139,6.419,6.4298,6.4317,6.4231,6.4405,6.4433,6.4555,6.4598,6.4539,6.4549,6.4878,6.4882,6.4886,6.4873,0,0,0,0,0,0,6.3696,6.3738,6.3783,6.3908,6.3952,6.4137,6.4126,6.4145,6.4209,6.4211,6.4333,6.4351,6.4406,6.4538,6.4566,6.4612,6.4557,6.4874,6.488,6.4885,6.487,6.4876,6.4882,0,0,0,0,0,6.3682,6.3769,6.3785,6.3819,6.4011,6.4139,6.4164,6.4227,6.4212,6.4258,6.4328,6.4347,6.4589,6.455,6.4582,6.4632,6.4872,6.4878,6.4884,6.4868,6.4875,6.4882,0,0,0,0,0,0,6.3644,6.3786,6.3805,6.3936,6.4025,6.4148,6.4207,6.4233,6.4327,6.4324,6.4397,6.4424,6.4541,6.4599,6.4553,6.4749,6.473,6.4743,6.4707,6.4715,6.472,6.4703,6.4566,0,0,0,0,0,6.3651,6.3745,6.3864,6.3967,6.4012,6.4102,6.416,6.4201,6.4296,6.4333,6.4412,6.4501,6.4598,6.466,6.4754,6.4879,6.4906,6.493,6.4935,6.4939,6.4949,6.5019,6.5031,6.4907,6.4907,6.4907,0,0,6.3665,6.3755,6.381,6.3962,6.4036,6.4131,6.4133,6.4233,6.4303,6.4348,6.4468,6.4529,6.4634,6.4758,6.4817,6.481,6.499,6.4947,6.495,6.4957,6.5027,6.5038,6.5049,6.4912,6.4911,6.491,0,0,6.3741,6.3819,6.3913,6.3988,6.4102,6.4161,6.4184,6.4303,6.4346,6.4469,6.4505,6.4589,6.4753,6.4827,6.4885,6.499,6.5011,6.5018,6.5048,6.5115,6.5125,6.5134,6.5171,6.5183,6.5028,6.5028,6.5028,0,6.3744,6.389,6.3958,6.4057,6.4122,6.417,6.4265,6.4334,6.4471,6.4515,6.4506,6.4714,6.4788,6.493,6.4956,6.5002,6.5029,6.5004,6.5119,6.5128,6.5138,6.5173,6.5187,6.5028,6.5028,6.5028,6.5028,0,6.3888,6.3989,6.4051,6.4185,6.4258,6.4354,6.4436,6.4501,6.4536,6.4595,6.472,6.481,6.4924,6.4961,6.4995,6.5109,6.5101,6.5105,6.5087,6.5148,6.5183,6.5197,6.5028,6.5028,6.5028,6.5028,0,0,6.3943,6.4116,6.4137,6.4199,6.4328,6.4406,6.4504,6.4618,6.4672,6.4765,6.4849,6.4988,6.4993,6.5059,6.5102,6.5162,6.5238,6.5159,6.5162,6.517,6.5368,6.5363,6.5378,6.5254,6.5257,6.5259,6.5359,0,6.4034,6.4214,6.4278,6.4425,6.4518,6.4565,6.4651,6.4738,6.4797,6.4884,6.4948,6.5046,6.5045,6.5085,6.5146,6.5216,6.5279,6.521,6.5331,6.5334,6.5302,6.5397,6.5392,6.5482,6.5373,6.5375,6.5377,0,6.4163,6.426,6.4417,6.4536,6.4577,6.4653,6.4763,6.4845,6.4945,6.4984,6.5059,6.5099,6.5202,6.5179,6.5322,6.5274,6.5327,6.5369,6.5374,6.5386,6.5358,6.5411,6.5512,6.5525,6.5399,6.5397,6.5396,0,6.4187,6.4357,6.4473,6.4524,6.4665,6.4718,6.4778,6.4877,6.4941,6.5036,6.5079,6.5184,6.5241,6.5321,6.5388,6.5365,6.5525,6.5507,6.5558,6.5557,6.5589,6.5585,6.5699,6.5625,6.5624,6.5624,6.5624,0,6.428,6.4374,6.4486,6.4557,6.4663,6.4737,6.4839,6.4902,6.499,6.5073,6.5119,6.5196,6.528,6.5367,6.5419,6.553,6.5555,6.5588,6.5601,6.5584,6.5579,6.5619,6.5614,6.5628,6.5627,6.5626,6.5626,0,6.4324,6.4403,6.4533,6.4656,6.469,6.4762,6.4867,6.4937,6.4999,6.5104,6.5132,6.5229,6.5334,6.5409,6.5544,6.5579,6.5697,6.571,6.5664,6.567,6.5717,6.5711,6.5858,6.5881,6.5792,6.5793,6.5794,0,6.4378,6.4451,6.4584,6.4644,6.4706,6.4801,6.4868,6.4943,6.501,6.5131,6.5186,6.5295,6.5386,6.5552,6.5633,6.5736,6.5751,6.5796,6.5767,6.5747,6.5751,6.5745,6.5753,6.5799,6.58,6.58,6.5801,0,6.4465,6.4501,6.4596,6.4706,6.4784,6.4874,6.4963,6.5009,6.51,6.5173,6.5282,6.5353,6.5492,6.5599,6.5711,6.5772,6.5801,6.581,6.5827,6.5809,6.5779,6.5796,6.5675,6.5806,6.5805,6.5805,6.5804,6.5804,6.4515,6.4582,6.4687,6.4791,6.4867,6.495,6.5023,6.5094,6.5188,6.5308,6.5346,6.5459,6.5558,6.5711,6.5774,6.5863,6.586,6.5885,6.5891,6.5896,6.5895,6.5767,6.5883,6.5883,6.5883,6.5883,6.5883,0,6.4603,6.4673,6.4769,6.4894,6.4976,6.4999,6.51,6.5167,6.5266,6.5357,6.5446,6.5572,6.5676,6.5766,6.5875,6.5928,6.5944,6.5954,6.595,6.5964,6.5891,6.5865,6.5939,6.5939,6.5939,6.5939,6.5939,6.5939,6.4659,6.4775,6.4823,6.4977,6.5046,6.5159,6.5214,6.529,6.5363,6.5502,6.559,6.5649,6.5739,6.5854,6.5951,6.5975,6.6012,6.6018,6.6045,6.5975,6.5969,6.5962,6.5938,6.6026,6.6026,6.611,6.611,6.6111]}]]